Temperature
15 15 15 15 15 15 15 15 15 15 15 15 15 15 15 15 15 15 15 15 15 15 15 15 15 15 15 15 15 15 15 15 15 15 15 15 15 15 16 15 15 16 15
15 15 15 15 15 15 15 15 15 15 15 15 15 15 15 15 14 14 14 14 15 15 15 15 15 15 15 15 15 15 15 15 15 15 15 15 15 15 15 15 15 15 15
15 15 15 15 15 15 15 15 15 14 14 14 14 14 14 14 14 14 14 14 14 14 14 14 14 14 15 15 15 15 15 15 15 15 15 15 15 15 15 15 15 15 15
15 15 14 14 14 14 14 14 14 14 14 14 14 14 14 14 14 14 14 14 14 14 14 14 14 14 14 14 14 14 14 14 14 14 14 14 14 15 14 14 14 14 14
14 14 14 14 14 14 14 14 14 14 14 14 14 14 14 13 13 13 13 13 13 13 13 14 14 14 14 14 14 14 14 14 14 14 14 14 14 14 14 14 14 14 14
14 14 14 14 14 14 14 14 14 14 14 14 14 13 13 13 13 13 13 13 13 13 13 13 13 13 14 14 14 14 14 14 14 14 14 14 14 14 14 14 14 14 14
14 14 14 14 14 14 13 13 13 13 13 13 13 13 13 13 13 13 13 13 13 13 13 13 13 13 13 13 13 13 13 13 13 13 13 13 13 13 13 13 13 13 13
14 14 14 14 14 14 13 13 13 13 13 13 13 13 14 13 13 13 12 12 12 12 12 12 12 12 12 12 13 13 13 13 13 13 13 13 13 13 13 13 13 13 13
14 14 14 14 14 13 13 13 13 13 13 13 13 13 14 14 13 13 12 12 12 12 12 12 12 12 12 12 12 12 13 13 13 13 13 13 13 13 13 13 13 13 13
14 14 14 14 13 13 13 13 13 13 13 12 12 13 13 13 13 13 12 12 12 12 12 12 12 12 12 12 12 12 12 12 12 12 12 12 12 12 12 12 12 12 12
14 14 14 14 13 13 13 13 13 13 13 12 12 12 12 12 12 13 13 12 12 12 11 11 11 11 11 11 11 12 12 12 12 12 12 12 12 12 12 12 12 12 12
14 14 14 13 13 13 13 13 13 12 12 12 12 12 12 12 12 12 12 12 12 11 11 11 11 11 11 11 11 12 12 12 12 12 12 12 12 12 12 12 12 12 11
14 14 13 13 13 13 13 13 12 12 12 12 12 12 12 12 12 12 12 12 11 11 11 11 11 11 11 11 11 11 11 11 11 12 12 12 11 11 11 11 11 11 11
14 13 13 13 13 13 13 12 12 12 12 12 12 11 11 11 11 11 11 11 11 11 11 11 11 10 10 10 10 11 11 11 11 11 11 11 11 11 11 11 11 11 11
13 13 13 13 13 13 12 12 12 12 12 12 11 11 11 11 11 11 11 11 11 12 11 11 10 10 10 10 10 10 10 11 11 11 11 11 11 11 11 11 11 11 11
13 13 13 13 12 12 12 12 12 12 11 11 11 11 11 11 11 11 10 10 10 11 11 10 10 10 10 10 10 10 10 10 11 11 11 11 11 11 11 11 10 10 10
13 13 13 12 12 12 12 12 12 11 11 11 11 11 11 10 10 10 10 10 10 10 10 10 9 9 9 9 10 10 10 10 10 10 10 10 10 10 10 10 10 10 10
13 12 12 12 12 12 12 12 12 11 11 11 11 11 10 10 10 10 10 10 10 9 9 9 9 9 9 9 9 9 9 9 9 10 10 10 10 10 10 10 10 10 10
12 12 12 12 12 12 11 11 11 11 11 11 11 10 10 10 10 10 10 9 9 9 9 9 9 9 9 9 9 9 9 9 9 9 9 9 9 9 9 9 9 9 9
12 12 12 11 11 11 11 11 11 11 10 10 10 10 10 10 10 9 9 9 9 9 9 9 9 8 8 9 9 8 8 9 9 9 9 9 9 9 9 9 9 9 9
12 11 11 11 11 11 11 11 10 10 10 10 10 10 10 10 10 9 9 9 9 9 8 8 8 8 8 8 8 8 8 8 8 8 8 8 9 9 9 9 9 9 9
11 11 11 11 11 11 11 11 10 10 10 10 10 10 10 10 9 9 9 9 9 9 8 8 8 8 8 8 8 8 8 8 8 8 8 8 8 8 8 8 8 8 8
11 11 11 11 10 10 10 10 10 10 10 10 10 9 9 9 9 9 9 9 9 9 9 8 8 8 8 8 8 8 8 8 8 8 8 7 8 8 8 8 8 8 8
10 10 10 10 10 10 10 10 10 9 9 9 9 9 9 9 9 9 8 8 9 9 8 8 8 8 8 8 8 8 8 7 7 7 7 7 7 7 7 7 8 8 8
10 10 10 10 9 9 9 9 9 9 9 9 9 9 9 8 9 9 8 8 8 8 8 8 8 8 8 8 8 7 7 7 7 7 7 7 7 7 7 7 7 7 7
9 9 9 9 9 9 9 9 9 8 8 8 8 9 9 8 8 8 8 8 8 8 8 8 8 8 7 7 7 7 7 7 7 7 7 7 6 6 6 7 7 7 7
Wind_Speed
3 3 3 4 4 4 3 3 4 4 4 5 5 6 6 6 6 6 7 11 10 9 8 8 8 8 8 8 7 7 6 6 6 6 6 6 6 6 6 6 7 7 7
3 3 4 4 4 3 3 3 3 3 4 4 4 5 5 6 6 5 5 7 9 9 9 8 8 8 7 7 6 6 6 6 6 6 6 6 6 6 6 6 6 6 6
3 3 3 3 3 3 3 3 3 3 3 3 3 4 4 5 4 5 5 5 5 8 9 9 8 8 7 7 6 5 5 5 5 5 5 6 6 6 5 5 5 5 6
3 3 2 3 3 3 2 2 2 2 2 2 2 3 3 3 4 4 4 5 5 5 8 9 9 8 8 7 6 5 5 5 5 5 5 5 5 5 5 5 5 5 5
2 2 2 2 3 2 2 2 2 2 2 2 2 2 2 2 3 3 4 5 5 5 5 6 7 8 8 8 7 6 5 5 4 5 5 5 5 5 5 5 5 5 5
1 1 1 1 2 2 2 2 2 2 2 1 1 1 1 1 2 2 3 3 4 5 4 4 3 5 7 7 7 6 5 4 4 5 5 5 5 5 5 5 5 6 5
1 1 0 0 0 0 1 1 1 1 1 1 0 0 1 1 1 2 2 2 3 4 4 4 4 3 3 6 7 7 6 5 5 4 5 5 5 4 5 5 5 5 6
1 1 1 1 1 0 1 1 0 1 0 1 1 1 1 2 1 1 1 1 2 2 3 4 4 3 4 4 7 7 7 6 5 4 4 4 5 6 5 5 5 5 6
2 2 2 2 1 2 1 2 2 2 1 1 1 2 2 1 0 1 1 1 2 2 2 2 3 3 3 3 4 6 7 7 5 5 5 5 5 5 5 5 5 6 6
2 2 2 2 2 2 2 2 2 2 2 2 1 1 2 2 1 1 1 1 1 1 2 2 2 3 3 3 4 6 7 6 5 5 4 4 4 4 5 5 5 6 6
2 2 3 3 3 2 2 2 2 2 2 2 2 1 1 1 3 3 1 1 0 0 1 1 1 2 3 3 3 6 6 6 5 5 5 4 3 4 4 4 5 5 5
2 3 3 3 3 3 3 3 3 3 3 3 2 2 2 2 2 2 3 2 1 1 0 1 1 1 2 2 4 6 5 5 5 5 4 4 3 3 3 4 4 5 5
3 4 4 4 4 4 4 4 4 3 4 4 4 3 3 3 2 3 3 2 2 1 1 1 0 0 1 1 2 3 3 4 4 4 4 4 3 3 3 3 4 4 4
4 4 5 4 4 4 4 4 4 4 4 4 4 3 3 3 3 3 3 3 3 2 2 2 1 0 0 1 2 1 2 3 3 3 3 3 3 3 3 3 3 3 3
3 4 4 5 5 5 5 5 4 4 4 4 4 4 3 3 3 3 3 4 4 3 2 1 1 1 1 1 1 1 0 3 2 2 2 2 2 2 2 2 2 3 2
4 4 4 5 5 5 6 5 5 4 5 4 3 4 4 3 2 2 3 3 4 4 3 1 1 1 1 1 1 2 1 3 2 2 2 2 2 2 2 2 2 2 1
4 5 5 5 5 5 6 5 6 5 5 5 5 5 5 4 3 3 3 3 3 4 4 3 2 1 2 2 1 2 1 2 2 3 2 1 2 2 2 2 2 2 2
5 5 5 5 5 6 6 6 6 6 6 6 6 5 5 4 5 4 3 4 4 4 4 3 2 2 2 2 1 1 1 1 1 3 2 2 2 2 2 2 2 2 2
6 6 6 6 6 6 6 6 6 6 7 7 6 6 6 5 5 4 4 4 4 4 4 4 3 1 2 2 2 2 1 1 1 1 2 2 2 2 2 1 1 2 2
5 5 6 6 7 7 7 7 7 7 7 7 6 6 6 6 6 6 5 5 5 5 4 4 3 3 2 2 2 2 2 2 2 1 1 2 2 3 3 2 2 2 2
4 4 5 6 7 6 6 7 7 7 7 7 7 7 7 6 5 5 5 5 5 5 5 5 4 3 3 3 3 3 3 2 2 2 2 2 2 3 3 4 4 3 3
4 4 5 6 6 6 5 6 7 8 8 8 7 7 7 7 7 7 6 5 6 6 6 6 5 5 5 4 3 3 3 3 2 2 3 2 2 2 2 2 2 3 3
4 5 5 5 6 6 5 7 9 8 7 7 8 7 6 6 8 7 7 8 8 7 7 7 6 6 5 5 5 5 4 4 4 2 3 3 3 3 3 2 3 3 3
5 5 5 5 6 6 6 7 7 8 8 8 8 8 7 8 7 8 8 8 8 7 8 8 7 6 5 5 5 5 5 4 4 3 3 4 3 3 3 3 4 4 4
5 5 5 6 6 6 6 6 7 6 7 9 8 8 8 8 7 8 8 8 8 6 5 6 5 4 2 3 4 3 4 5 4 4 3 4 3 3 3 3 3 5 5
5 5 6 6 7 7 5 6 7 6 7 7 6 6 7 7 7 8 9 8 8 7 6 6 6 5 5 5 7 6 5 5 5 3 3 4 3 3 3 3 2 3 4
Wind_Direction
60 57 60 58 53 56 58 50 49 58 57 55 56 54 56 57 55 56 66 59 53 53 56 55 52 53 54 56 61 69 71 74 74 75 76 77 79 79 79 81 79 79 77
60 53 56 56 55 51 53 54 57 59 57 54 54 57 55 57 55 56 57 68 62 53 51 50 51 53 51 53 57 60 64 71 76 77 76 75 77 80 81 82 80 78 79
60 59 51 54 54 56 57 57 62 64 65 64 61 55 54 50 52 54 54 48 60 65 57 49 49 50 50 51 54 56 60 71 74 75 74 76 80 81 83 83 85 83 79
60 60 56 56 53 52 54 58 54 54 57 50 54 55 53 55 54 51 54 55 48 53 64 55 47 46 51 49 50 56 62 70 73 73 75 76 81 83 85 88 87 86 85
63 70 60 54 56 56 49 46 53 45 55 48 50 61 49 49 54 52 52 52 52 47 53 69 59 52 51 47 49 57 61 64 69 70 71 75 82 87 85 87 88 84 83
85 82 83 66 60 57 48 47 63 57 50 44 48 63 65 64 64 53 39 47 45 45 42 45 60 71 62 53 55 55 57 59 64 71 70 72 79 84 82 85 91 85 83
175 135 161 84 59 66 53 69 76 94 67 22 263 139 123 102 76 67 43 41 52 46 42 40 38 40 72 78 59 51 52 58 65 72 72 73 75 80 83 86 96 91 85
218 208 226 221 201 196 194 183 178 254 114 329 294 262 212 171 142 66 56 46 42 52 37 33 36 36 38 59 69 60 50 53 58 68 77 72 77 82 85 88 90 92 89
235 227 225 230 229 227 219 220 222 228 226 226 321 300 282 268 150 156 95 52 35 42 40 29 25 31 43 51 59 65 55 47 51 63 76 82 81 82 85 86 84 85 88
237 236 230 229 230 234 234 225 221 232 228 233 225 296 314 332 275 216 176 144 50 37 22 19 20 29 36 49 57 55 57 48 51 60 73 78 80 82 86 84 81 82 81
233 232 233 232 237 235 237 226 219 228 224 238 238 231 246 264 271 272 253 237 230 350 8 355 11 28 29 43 48 58 56 49 51 55 59 66 78 84 88 92 86 82 78
221 227 230 232 234 233 231 225 221 226 233 233 236 234 241 250 254 254 262 265 278 285 277 351 345 23 24 35 50 59 53 44 45 46 48 55 75 88 91 97 91 87 81
229 225 224 229 231 229 223 218 220 227 231 235 236 239 248 260 265 263 264 268 274 272 247 237 313 7 19 22 48 54 62 49 45 44 44 51 70 86 88 98 96 91 90
244 234 227 229 229 230 225 217 227 230 233 233 238 239 248 255 259 261 263 263 260 243 240 250 232 260 320 319 35 353 85 84 63 48 46 55 80 93 90 91 99 96 93
245 240 231 229 226 223 223 217 225 228 232 235 238 236 240 243 251 256 260 261 262 260 259 238 243 257 264 274 19 278 238 99 86 58 53 66 82 99 103 106 107 104 101
243 240 236 236 230 222 218 218 226 234 230 228 235 241 244 243 239 242 246 252 259 265 263 268 270 280 291 261 290 270 271 122 120 107 92 86 92 95 110 128 126 129 138
246 245 243 242 237 231 224 218 225 229 232 231 226 230 233 239 232 227 230 234 237 242 246 258 274 262 261 265 243 260 249 221 159 135 129 130 131 131 119 131 156 151 159
245 245 249 249 246 238 233 226 224 229 232 233 230 227 227 220 229 229 224 226 225 229 235 241 249 249 261 263 255 255 243 234 216 126 145 157 160 151 138 134 149 168 187
250 245 244 247 250 243 233 227 227 231 233 234 231 228 228 221 221 222 224 227 226 222 226 232 245 250 259 241 231 244 239 240 238 158 167 184 180 169 170 177 182 186 201
255 252 248 247 249 247 238 230 229 234 235 235 234 232 232 227 226 226 223 226 224 220 217 224 231 232 239 234 225 227 230 220 230 218 203 197 193 192 199 200 199 197 207
259 262 257 252 250 245 239 236 233 235 234 235 236 234 231 230 240 239 234 228 221 220 218 220 227 231 230 218 225 226 232 233 232 219 224 221 205 211 201 200 206 207 207
263 260 260 257 254 248 239 240 242 237 237 236 238 238 231 223 221 224 230 236 233 229 225 219 224 228 236 232 227 221 224 228 236 215 232 236 218 224 209 204 167 182 211
267 263 266 264 258 255 241 239 239 241 240 240 238 238 235 229 219 223 219 219 225 235 243 239 235 237 239 230 221 221 222 232 244 229 237 240 230 237 222 195 165 200 226
267 264 264 265 261 256 245 245 244 241 241 238 236 236 235 230 221 222 223 222 225 226 230 235 241 244 245 239 228 233 236 240 246 224 222 240 239 247 238 220 187 212 230
274 270 264 260 260 259 246 245 249 248 245 243 239 234 232 232 217 218 223 224 226 223 214 228 251 266 266 231 221 223 222 220 232 230 221 235 240 246 241 233 208 207 221
273 273 269 265 264 265 254 247 250 248 247 245 240 234 224 231 219 211 221 224 227 226 217 215 219 221 226 212 205 213 219 223 231 238 219 227 238 242 242 233 230 219 227
Height
1543 1543 1542 1541 1541 1541 1540 1540 1540 1539 1539 1539 1538 1538 1537 1536 1536 1536 1534 1533 1533 1532 1532 1531 1531 1530 1530 1529 1529 1529 1529 1529 1528 1528 1528 1529 1529 1529 1529 1530 1530 1530 1531
1543 1543 1543 1542 1542 1541 1541 1540 1540 1539 1539 1539 1538 1538 1537 1537 1536 1536 1535 1534 1533 1533 1532 1531 1530 1529 1529 1529 1529 1528 1528 1528 1528 1528 1528 1528 1528 1529 1529 1529 1530 1530 1531
1544 1543 1543 1543 1542 1542 1541 1541 1540 1540 1539 1539 1538 1538 1537 1537 1536 1536 1535 1535 1534 1533 1532 1531 1530 1529 1529 1528 1528 1528 1527 1527 1527 1527 1528 1528 1528 1528 1528 1529 1529 1530 1530
1544 1544 1543 1543 1542 1542 1541 1541 1540 1540 1540 1539 1538 1538 1537 1537 1536 1536 1535 1535 1534 1533 1532 1531 1530 1529 1528 1528 1527 1527 1527 1526 1527 1527 1527 1527 1527 1527 1528 1529 1529 1529 1530
1544 1544 1543 1543 1542 1542 1541 1541 1540 1540 1539 1539 1538 1538 1537 1537 1536 1536 1535 1535 1534 1533 1532 1531 1530 1529 1528 1527 1527 1526 1526 1526 1526 1526 1526 1526 1526 1527 1527 1528 1529 1529 1530
1544 1544 1543 1543 1542 1541 1541 1540 1540 1539 1539 1538 1538 1538 1537 1537 1536 1535 1535 1534 1534 1533 1532 1531 1531 1529 1528 1527 1527 1526 1526 1526 1526 1526 1526 1525 1526 1526 1527 1528 1528 1529 1529
1544 1543 1543 1542 1541 1541 1541 1540 1539 1539 1539 1538 1538 1538 1538 1537 1536 1535 1535 1534 1534 1533 1532 1531 1531 1530 1528 1527 1527 1526 1526 1526 1526 1525 1525 1526 1526 1526 1527 1527 1528 1529 1529
1543 1543 1542 1542 1541 1540 1540 1539 1539 1539 1538 1538 1538 1538 1538 1538 1536 1535 1535 1534 1534 1533 1532 1531 1530 1529 1529 1527 1527 1527 1526 1526 1525 1525 1525 1525 1526 1526 1527 1528 1528 1529 1529
1542 1542 1541 1541 1540 1540 1539 1538 1538 1538 1538 1537 1537 1538 1538 1537 1536 1536 1534 1534 1533 1532 1532 1531 1530 1529 1528 1528 1527 1526 1526 1526 1525 1525 1525 1525 1526 1526 1527 1528 1528 1529 1529
1540 1540 1540 1539 1539 1539 1538 1538 1537 1537 1536 1536 1536 1536 1537 1536 1536 1535 1535 1533 1532 1531 1531 1530 1529 1529 1528 1527 1526 1526 1526 1526 1525 1525 1525 1525 1526 1526 1527 1528 1528 1529 1529
1538 1538 1538 1538 1538 1537 1536 1536 1536 1535 1535 1535 1535 1535 1535 1534 1534 1534 1534 1533 1532 1531 1530 1529 1529 1528 1527 1527 1526 1526 1525 1525 1525 1525 1525 1525 1525 1526 1527 1527 1528 1528 1529
1536 1536 1536 1536 1536 1535 1534 1534 1534 1534 1533 1533 1533 1533 1533 1533 1533 1533 1532 1531 1531 1530 1529 1528 1528 1527 1526 1526 1525 1525 1524 1524 1524 1524 1524 1524 1524 1525 1526 1527 1527 1527 1528
1534 1534 1533 1533 1533 1533 1533 1532 1532 1532 1531 1531 1531 1531 1531 1531 1531 1531 1531 1530 1529 1529 1528 1527 1527 1526 1525 1525 1524 1524 1524 1523 1523 1523 1523 1523 1523 1524 1525 1526 1526 1526 1527
1532 1531 1531 1531 1531 1531 1531 1530 1530 1530 1529 1529 1529 1529 1528 1529 1529 1529 1529 1529 1528 1528 1527 1527 1525 1525 1524 1524 1523 1523 1522 1522 1522 1522 1522 1522 1522 1523 1524 1524 1525 1525 1526
1530 1529 1529 1528 1528 1528 1528 1528 1528 1527 1527 1527 1526 1526 1526 1526 1526 1526 1526 1526 1527 1526 1526 1525 1524 1523 1523 1523 1522 1521 1521 1521 1521 1521 1521 1521 1522 1522 1522 1523 1523 1524 1524
1527 1526 1526 1526 1525 1525 1525 1525 1525 1525 1525 1524 1524 1524 1524 1524 1523 1523 1523 1524 1524 1525 1524 1523 1523 1522 1521 1521 1520 1520 1520 1520 1520 1520 1520 1520 1520 1520 1521 1521 1522 1522 1522
1523 1523 1523 1522 1522 1522 1522 1521 1521 1522 1522 1521 1521 1521 1521 1520 1521 1521 1520 1521 1521 1522 1521 1521 1521 1520 1519 1519 1519 1518 1518 1518 1518 1518 1519 1519 1519 1519 1519 1519 1520 1520 1520
1520 1519 1519 1519 1518 1518 1518 1518 1517 1518 1518 1518 1518 1518 1517 1517 1518 1518 1518 1518 1518 1519 1519 1519 1519 1518 1518 1518 1517 1517 1517 1516 1517 1517 1517 1517 1517 1517 1517 1517 1518 1518 1518
1516 1516 1515 1515 1515 1514 1514 1514 1514 1514 1514 1515 1515 1514 1514 1515 1515 1515 1515 1515 1516 1516 1516 1516 1516 1516 1516 1516 1515 1515 1515 1515 1515 1515 1515 1515 1515 1515 1515 1516 1516 1516 1516
1512 1512 1511 1511 1511 1510 1510 1510 1510 1510 1511 1511 1511 1511 1511 1511 1511 1512 1512 1512 1513 1513 1513 1514 1514 1513 1513 1513 1513 1513 1513 1514 1514 1514 1514 1514 1513 1513 1513 1514 1514 1514 1514
1508 1508 1508 1507 1506 1506 1506 1506 1506 1506 1507 1507 1507 1507 1507 1507 1507 1508 1508 1509 1510 1510 1510 1510 1511 1511 1511 1510 1510 1511 1511 1512 1512 1512 1512 1512 1511 1511 1511 1511 1511 1511 1511
1505 1504 1504 1503 1502 1502 1501 1501 1502 1502 1502 1503 1503 1503 1503 1503 1503 1504 1504 1505 1505 1506 1507 1507 1507 1507 1508 1508 1508 1508 1509 1509 1510 1510 1509 1510 1509 1509 1509 1509 1509 1508 1508
1501 1501 1500 1499 1498 1497 1497 1497 1497 1497 1497 1498 1498 1499 1499 1499 1499 1500 1500 1501 1501 1502 1503 1503 1504 1504 1504 1505 1505 1505 1506 1506 1507 1507 1507 1507 1507 1506 1506 1506 1506 1506 1505
1497 1496 1495 1495 1494 1493 1492 1492 1492 1493 1493 1493 1493 1494 1494 1494 1495 1495 1496 1497 1497 1497 1498 1499 1499 1500 1501 1501 1502 1503 1503 1503 1504 1504 1504 1504 1504 1504 1503 1503 1503 1503 1502
1493 1492 1491 1490 1489 1489 1488 1488 1488 1488 1488 1488 1488 1489 1489 1490 1490 1491 1492 1493 1493 1493 1494 1494 1495 1496 1496 1497 1498 1498 1499 1500 1500 1500 1501 1501 1501 1500 1500 1500 1499 1499 1499
1489 1488 1487 1486 1485 1484 1484 1483 1483 1483 1483 1483 1484 1484 1484 1485 1486 1486 1488 1488 1488 1489 1490 1490 1491 1492 1492 1493 1494 1494 1495 1496 1497 1497 1497 1497 1497 1498 1498 1497 1496 1495 1495